Voltar ao catálogo

STARLINK-35375

AtivoComunicaçõesVLEO
NORAD 66065·PAYLOAD·🇺🇸 United States

Lançado Oct 19, 2025 de Cape Canaveral Space Force Station

Loading…

Próximas Passagens (próximas 24 horas)

TLE

AtualizadoSource: CelesTrak SupGP

Época: Sep 15, 2026, 03:44 UTC

1 66065C 25235H   26258.15604167 -.00022986  00000+0 -67916-3 0  2581
2 66065  53.1586  84.6865 0001181  85.7186  42.4588 15.34400283    18

Acompanhe STARLINK-35375 em tempo real com AllMySat

Download on the App Store